Location: Newark
(21.0319°N, 105.8400°E)
Time: 00:39:43
(UTC+00:00)

LightSail 2 - Visible Passes

Search period start: 09 December 2019 00:00
Search period end: 19 December 2019 00:00
Orbit: 696 x 730 km, 24.0° (Epoch: 08 December)

Date Brightness Start Highest point End Pass type
(mag) Time Alt. Az. Time Alt. Az. Time Alt. Az.
09 Dec 5.4 12:10:29 10° W 12:15:34 59° SSW 12:15:44 59° S visible
10 Dec 5.3 11:12:17 10° W 11:17:28 76° SSW 11:21:41 15° ESE visible
10 Dec 7.4 12:58:26 10° W 13:00:42 21° WSW 13:00:42 21° WSW visible
11 Dec 6.3 11:59:58 10° W 12:04:46 38° SSW 12:06:46 27° SSE visible
12 Dec 5.9 11:01:39 10° W 11:06:41 51° SSW 11:11:41 10° SE visible
12 Dec 7.5 12:48:39 10° WSW 12:51:56 17° SSW 12:51:57 17° SSW visible
13 Dec 7.2 11:49:46 10° WSW 11:53:52 24° SSW 11:57:58 10° SSE visible
14 Dec 6.8 10:51:10 10° W 10:55:49 32° SSW 11:00:24 10° SE visible
15 Dec 7.8 11:40:17 10° WSW 11:42:55 14° SSW 11:45:34 10° S visible
16 Dec 7.7 10:41:04 10° WSW 10:44:50 20° SSW 10:48:35 10° SSE visible
18 Dec 8.1 23:01:24 10° S 23:02:52 11° SSE 23:04:20 10° SE visible
